Printer-friendly version

IAU Minor Planet Center

Minor Planet Center

MPEC 2006-X24 : 2006 XB

The following Minor Planet Electronic Circular may be linked-to from your own Web pages, but must not otherwise be redistributed electronically.


Read MPEC 2006-X23 Read MPEC 2006-X25


M.P.E.C. 2006-X24                                Issued 2006 Dec. 8, 16:40 UT

     The Minor Planet Electronic Circulars contain information on unusual
         minor planets and routine data on comets.  They are published
   on behalf of Commission 20 of the International Astronomical Union by the
          Minor Planet Center, Smithsonian Astrophysical Observatory,
                          Cambridge, MA 02138, U.S.A.

             Prepared using the Tamkin Foundation Computer Network

                              MPC@CFA.HARVARD.EDU
          URL http://cfa-www.harvard.edu/iau/mpc.html  ISSN 1523-6714

                                    2006 XB

Observations:
     K06X00B* C2006 12 06.37611 03 57 31.87 -05 58 33.9          19.6 R EX024644
     K06X00B  C2006 12 06.39700 03 57 29.06 -05 58 56.7          19.4 R EX024644
     K06X00B  C2006 12 06.41791 03 57 26.27 -05 59 19.6          19.6 R EX024644
     K06X00B  C2006 12 08.06023 03 53 57.52 -06 29 05.0          19.6 R EX024H36
     K06X00B  C2006 12 08.06709 03 53 56.52 -06 29 13.1          19.3 R EX024H36
     K06X00B  C2006 12 08.07351 03 53 55.73 -06 29 20.3          19.3 R EX024H36
     K06X00B  C2006 12 08.09070 03 53 53.36 -06 29 39.0          19.9 R EX024734
     K06X00B  C2006 12 08.10169 03 53 51.88 -06 29 50.0          19.8 R EX024734
     K06X00B  C2006 12 08.10607 03 53 51.28 -06 29 55.3          19.3 R EX024734
     K06X00B  C2006 12 08.11047 03 53 50.71 -06 29 59.8          20.2 R EX024734

Observer details:
644 Palomar Mountain/NEAT.  Observers M. Brown, R. Bambery, K. Lawrence,
    M. Hicks, E. Helin, R. Thicksten.  1.2-m Schmidt + CCD.
734 Farpoint Observatory.  Observer D. Tibbets.  0.7-m reflector + CCD.
H36 Sandlot Observatory, Scranton.  Observer G. Hug.  0.30-m
    Schmidt-Cassegrain + CCD.

Orbital elements:
2006 XB                                                  Earth MOID = 0.0706 AU
Epoch 2006 Sept. 22.0 TT = JDT 2454000.5                MPC
M 279.14534              (2000.0)            P               Q
n   0.49835965     Peri.    5.54445     -0.94916084     -0.31115924
a   1.5755813      Node   156.15702     +0.28409279     -0.91195851
e   0.4355115      Incl.    6.77428     +0.13559121     -0.26741653
P   1.98           H   20.7           G   0.15           U   9
Residuals in seconds of arc
061206 644  0.1+  0.1-    061208 H36  0.7-  0.0     061208 734  0.1-  0.2-
061206 644  0.0   0.0     061208 H36  0.4+  0.3-    061208 734  0.4+  0.0
061206 644  0.1-  0.1+    061208 734  0.3-  0.5-
061208 H36  0.4+  0.7+    061208 734  0.0   0.4+

Ephemeris:
2006 XB                  a,e,i = 1.58, 0.44, 7                   q = 0.8894
Date    TT    R. A. (2000) Decl.     Delta      r     Elong.  Phase     V
2006 12 01    04 08.40   -04 14.7    0.376    1.333   153.6    19.2    20.2
2006 12 11    03 47.48   -07 19.1    0.332    1.267   143.5    27.5    20.0
2006 12 21    03 24.95   -09 34.4    0.300    1.201   130.6    38.4    20.0
2006 12 31    03 04.00   -10 43.4    0.275    1.136   117.4    50.2    20.0
2007 01 10    02 46.21   -10 50.2    0.251    1.074   104.6    62.4    20.1
2007 01 20    02 30.73   -10 07.4    0.225    1.017    92.1    75.1    20.1
2007 01 30    02 14.07   -08 49.0    0.193    0.968    79.3    89.4    20.2
2007 02 09    01 48.14   -07 02.1    0.158    0.928    64.0   107.2    20.5
2007 02 19    00 57.99   -04 32.4    0.124    0.901    42.7   132.0    21.8
2007 03 01    23 26.68   -00 56.5    0.103    0.890    12.3   166.3    29.4
2007 03 11    21 40.84   +02 30.3    0.112    0.894    26.3   150.5    24.2
2007 03 21    20 33.17   +04 14.7    0.143    0.915    51.7   121.2    21.2
2007 03 31    19 59.82   +05 01.3    0.180    0.949    68.8   101.0    20.5
2007 04 10    19 42.62   +05 30.8    0.215    0.994    81.8    85.8    20.4
2007 04 20    19 30.59   +05 52.5    0.245    1.048    93.5    73.0    20.3
2007 04 30    19 18.01   +05 58.6    0.270    1.108   105.1    61.3    20.3
2007 05 10    19 02.27   +05 38.4    0.291    1.172   117.2    50.0    20.2
2007 05 20    18 42.53   +04 39.8    0.314    1.238   130.0    38.8    20.2
2007 05 30    18 20.16   +02 56.1    0.344    1.304   142.7    28.1    20.2
2007 06 09    17 57.95   +00 34.2    0.384    1.370   153.4    19.4    20.3
2007 06 19    17 38.75   -02 09.7    0.440    1.435   158.6    15.0    20.5
2007 06 29    17 24.63   -04 57.5    0.511    1.498   155.9    16.1    21.0
2007 07 09    17 16.13   -07 35.7    0.598    1.559   148.7    19.8    21.5
2007 07 19    17 12.88   -09 58.5    0.700    1.618   140.4    23.6    22.1

Timothy B. Spahr             (C) Copyright 2006 MPC           M.P.E.C. 2006-X24

Read MPEC 2006-X23 Read MPEC 2006-X25


Our Web policy. Index to the CBAT/MPC/ICQ pages.


Valid HTML 4.01!